Benton Harbor, MI

6:16 AM EDT on September 27, 2016 (GMT -0400)
Southwest Michigan Regional

Weather History for KBEH - January, 2013

Change the Weather History Date:

Tuesday, January 22, 2013

  Actual Average Record
Temperature  
Mean Temperature 9 °F -  
Max Temperature 12 °F 33 °F 56 °F (1957)
Min Temperature 6 °F 21 °F -9 °F (1970)
Degree Days  
Heating Degree Days 56    
Moisture  
Dew Point 1 °F    
Average Humidity 71    
Maximum Humidity 85    
Minimum Humidity 57    
Precipitation  
Precipitation 0.00 in - - ()
Sea Level Pressure  
Sea Level Pressure 30.27 in    
Wind  
Wind Speed 14 mph (WNW)    
Max Wind Speed 18 mph    
Max Gust Speed 29 mph    
Visibility 2 miles    
Events Fog , Snow    
Averages and records for this station are not official NWS values.
T = Trace of Precipitation, MM = Missing Value Source: NWS Daily Summary

Daily Weather History Graph

Daily Weather History Graph

Search for Another Location

Airport or City:

Trip Planner

Search our weather history database for the weather conditions in past years. The results will help you decide how hot, cold, wet, or windy it might be!

Date:

Astronomy

Jan. 22, 2013 Rise Set
Actual Time 8:07 AM EST 5:47 PM EST
Civil Twilight 7:36 AM EST 6:18 PM EST
Nautical Twilight 7:02 AM EST 6:52 PM EST
Astronomical Twilight 6:29 AM EST 7:25 PM EST
Moon 2:09 PM EST (1/22) 4:29 AM EST (1/22)
Length of Visible Light 10h 41m
Length of Day
9h 40m
Waxing Gibbous, 82% of the Moon is Illuminated
Jan 22
Waxing Gibbous
Jan 26
Full
Feb 3
Last Quarter
Feb 10
New
Feb 17
First Quarter

Hourly Weather History & Observations

Time (EST) Temp. Windchill Dew Point Humidity Pressure Visibility Wind Dir Wind Speed Gust Speed Precip Events Conditions
12:05 AM 8.6 °F -8.3 °F 1.4 °F 73% 30.19 in 1.8 mi WNW 15.0 mph 24.2 mph 0.00 in Snow Light Snow
12:17 AM 8.6 °F -8.3 °F -0.4 °F 67% 30.19 in 3.0 mi WNW 15.0 mph 24.2 mph 0.00 in Snow Light Snow
12:45 AM 8.6 °F -8.3 °F -2.2 °F 62% 30.19 in 8.0 mi NW 15.0 mph 20.7 mph 0.00 in   Overcast
12:53 AM 8.1 °F -10.2 °F -0.0 °F 70% 30.23 in 1.8 mi WNW 17.3 mph 23.0 mph 0.00 in Snow Light Snow
1:04 AM 8.6 °F -7.7 °F -2.2 °F 62% 30.19 in 4.0 mi WNW 13.8 mph 21.9 mph 0.00 in Snow Light Snow
1:18 AM 8.6 °F -8.3 °F -2.2 °F 62% 30.19 in 4.0 mi WNW 15.0 mph 28.8 mph 0.00 in Snow Light Snow
1:26 AM 8.6 °F -8.3 °F -4.0 °F 57% 30.19 in 7.0 mi WNW 15.0 mph 21.9 mph 0.00 in   Overcast
1:33 AM 8.6 °F -8.3 °F -2.2 °F 62% 30.19 in 2.5 mi WNW 15.0 mph 23.0 mph 0.00 in Snow Light Snow
1:44 AM 8.6 °F -8.3 °F -0.4 °F 67% 30.19 in 1.2 mi WNW 15.0 mph 24.2 mph 0.00 in Snow Light Snow
1:53 AM 8.1 °F -9.6 °F 1.9 °F 76% 30.23 in 1.0 mi WNW 16.1 mph 25.3 mph 0.00 in Snow Light Snow
1:59 AM 8.6 °F -7.7 °F -0.4 °F 67% 30.19 in 2.0 mi WNW 13.8 mph 24.2 mph 0.00 in Snow Light Snow
2:02 AM 8.6 °F -6.3 °F -2.2 °F 62% 30.19 in 5.0 mi WNW 11.5 mph 24.2 mph 0.00 in Snow Light Snow
2:07 AM 8.6 °F -7.7 °F -0.4 °F 67% 30.19 in 2.5 mi WNW 13.8 mph 21.9 mph 0.00 in Snow Light Snow
2:09 AM 8.6 °F -8.9 °F -0.4 °F 67% 30.19 in 1.2 mi WNW 16.1 mph 23.0 mph 0.00 in Snow Light Snow
2:13 AM 8.6 °F -6.3 °F 1.4 °F 73% 30.19 in 0.5 mi WNW 11.5 mph 23.0 mph 0.00 in Snow Snow
2:20 AM 6.8 °F -12.4 °F 3.2 °F 85% 30.20 in 0.5 mi WNW 18.4 mph 27.6 mph 0.00 in Fog , Snow Snow
2:31 AM 6.8 °F -10.7 °F 1.4 °F 79% 30.20 in 0.8 mi WNW 15.0 mph 25.3 mph 0.00 in Snow Light Snow
2:35 AM 8.6 °F -8.3 °F -0.4 °F 67% 30.20 in 1.5 mi WNW 15.0 mph 25.3 mph 0.00 in Snow Light Snow
2:46 AM 6.8 °F -10.0 °F 1.4 °F 79% 30.20 in 0.8 mi NW 13.8 mph 25.3 mph 0.00 in Snow Light Snow
2:53 AM 7.0 °F -9.8 °F 1.9 °F 80% 30.25 in 0.5 mi WNW 13.8 mph 25.3 mph 0.00 in Snow Snow
2:59 AM 6.8 °F -11.8 °F 1.4 °F 79% 30.21 in 0.8 mi WNW 17.3 mph 24.2 mph 0.00 in Snow Light Snow
3:02 AM 8.6 °F -9.5 °F 1.4 °F 73% 30.21 in 1.0 mi WNW 17.3 mph 24.2 mph 0.00 in Snow Light Snow
3:09 AM 6.8 °F -8.6 °F 1.4 °F 79% 30.21 in 0.8 mi WNW 11.5 mph 24.2 mph 0.00 in Snow Light Snow
3:17 AM 6.8 °F -10.0 °F -0.4 °F 72% 30.21 in 1.5 mi WNW 13.8 mph 21.9 mph 0.00 in Snow Light Snow
3:20 AM 6.8 °F -10.0 °F -0.4 °F 72% 30.21 in 2.0 mi NW 13.8 mph 23.0 mph 0.00 in Snow Light Snow
3:30 AM 6.8 °F -10.7 °F -2.2 °F 67% 30.21 in 3.0 mi WNW 15.0 mph 23.0 mph 0.00 in Snow Light Snow
3:37 AM 6.8 °F -10.0 °F -0.4 °F 72% 30.21 in 2.0 mi WNW 13.8 mph 21.9 mph 0.00 in Snow Light Snow
3:47 AM 6.8 °F -10.7 °F -0.4 °F 72% 30.22 in 1.2 mi West 15.0 mph 21.9 mph 0.00 in Snow Light Snow
3:53 AM 7.0 °F -9.8 °F -0.9 °F 70% 30.27 in 1.5 mi WNW 13.8 mph 23.0 mph 0.00 in Snow Light Snow
4:12 AM 6.8 °F -7.8 °F -2.2 °F 67% 30.22 in 3.0 mi WNW 10.4 mph 20.7 mph 0.00 in Snow Light Snow
4:36 AM 6.8 °F -8.6 °F -4.0 °F 61% 30.22 in 7.0 mi WNW 11.5 mph 20.7 mph 0.00 in   Overcast
4:53 AM 7.0 °F -9.8 °F -2.9 °F 64% 30.27 in 7.0 mi WNW 13.8 mph 23.0 mph 0.00 in   Overcast
5:09 AM 6.8 °F -10.0 °F -2.2 °F 67% 30.23 in 2.5 mi WNW 13.8 mph 23.0 mph 0.00 in Snow Light Snow
5:12 AM 6.8 °F -9.3 °F -0.4 °F 72% 30.23 in 1.2 mi NW 12.7 mph 23.0 mph 0.00 in Snow Light Snow
5:23 AM 6.8 °F -10.0 °F -0.4 °F 72% 30.23 in 2.5 mi WNW 13.8 mph - 0.00 in Snow Light Snow
5:26 AM 6.8 °F -7.8 °F -2.2 °F 67% 30.23 in 6.0 mi WNW 10.4 mph - 0.00 in   Haze
5:53 AM 7.0 °F -9.1 °F -2.9 °F 64% 30.28 in 3.0 mi WNW 12.7 mph 25.3 mph 0.00 in Snow Light Snow
6:28 AM 6.8 °F -10.0 °F -4.0 °F 61% 30.24 in 10.0 mi WNW 13.8 mph 20.7 mph 0.00 in   Mostly Cloudy
6:41 AM 6.8 °F -8.6 °F -4.0 °F 61% 30.25 in 10.0 mi NW 11.5 mph 19.6 mph 0.00 in   Overcast
6:53 AM 7.0 °F -10.4 °F -4.0 °F 61% 30.30 in 4.0 mi WNW 15.0 mph 21.9 mph 0.00 in Snow Light Snow
7:09 AM 6.8 °F -10.7 °F -0.4 °F 72% 30.25 in 2.0 mi WNW 15.0 mph 23.0 mph 0.00 in Snow Light Snow
7:15 AM 6.8 °F -6.9 °F -0.4 °F 72% 30.25 in 1.2 mi WNW 9.2 mph 23.0 mph 0.00 in Snow Light Snow
7:22 AM 6.8 °F -9.3 °F -0.4 °F 72% 30.26 in 2.0 mi WNW 12.7 mph 21.9 mph 0.00 in Snow Light Snow
7:31 AM 6.8 °F -11.3 °F -2.2 °F 67% 30.26 in 3.0 mi West 16.1 mph 21.9 mph 0.00 in Snow Light Snow
7:37 AM 6.8 °F -8.6 °F -0.4 °F 72% 30.26 in 1.8 mi WNW 11.5 mph 25.3 mph 0.00 in Snow Light Snow
7:46 AM 6.8 °F -11.3 °F -0.4 °F 72% 30.27 in 1.2 mi WNW 16.1 mph 26.5 mph 0.00 in Snow Light Snow
7:49 AM 6.8 °F -11.3 °F -2.2 °F 67% 30.27 in 2.0 mi West 16.1 mph 24.2 mph 0.00 in Snow Light Snow
7:53 AM 7.0 °F -6.6 °F -0.9 °F 70% 30.31 in 1.5 mi WNW 9.2 mph 23.0 mph 0.00 in Snow Light Snow
8:02 AM 6.8 °F -10.0 °F -2.2 °F 67% 30.27 in 3.0 mi WNW 13.8 mph 20.7 mph 0.00 in Snow Light Snow
8:09 AM 6.8 °F -10.0 °F -0.4 °F 72% 30.27 in 1.8 mi West 13.8 mph 21.9 mph 0.00 in Snow Light Snow
8:18 AM 6.8 °F -12.4 °F -0.4 °F 72% 30.27 in 1.0 mi WNW 18.4 mph 24.2 mph 0.00 in Snow Light Snow
8:23 AM 6.8 °F -11.3 °F 1.4 °F 79% 30.27 in 0.5 mi West 16.1 mph 24.2 mph 0.00 in Snow Snow
8:53 AM 7.0 °F -12.1 °F 1.9 °F 80% 30.33 in 0.2 mi West 18.4 mph 26.5 mph 0.00 in Snow Heavy Snow
9:46 AM 8.6 °F -7.7 °F 1.4 °F 73% 30.29 in 0.2 mi WNW 13.8 mph - 0.00 in Snow Heavy Snow
9:53 AM 7.0 °F -12.1 °F 1.0 °F 77% 30.34 in 0.5 mi West 18.4 mph 24.2 mph 0.00 in Snow Snow
10:41 AM 8.6 °F -8.9 °F 1.4 °F 73% 30.31 in 0.8 mi West 16.1 mph 24.2 mph 0.00 in Snow Light Snow
10:53 AM 8.1 °F -9.6 °F 1.0 °F 73% 30.36 in 1.2 mi WNW 16.1 mph 23.0 mph 0.00 in Snow Light Snow
10:57 AM 8.6 °F -9.5 °F -0.4 °F 67% 30.31 in 2.0 mi WNW 17.3 mph 21.9 mph 0.00 in Snow Light Snow
11:08 AM 8.6 °F -8.3 °F -0.4 °F 67% 30.31 in 4.0 mi West 15.0 mph 23.0 mph 0.00 in Snow Light Snow
11:25 AM 8.6 °F -8.9 °F -0.4 °F 67% 30.31 in 1.8 mi West 16.1 mph 24.2 mph 0.00 in Snow Light Snow
11:53 AM 9.0 °F -5.9 °F -0.0 °F 67% 30.36 in 1.5 mi West 11.5 mph 21.9 mph 0.00 in Snow Light Snow
12:02 PM 8.6 °F -8.3 °F -0.4 °F 67% 30.31 in 2.0 mi West 15.0 mph 21.9 mph 0.00 in Snow Light Snow
12:13 PM 8.6 °F -8.9 °F 1.4 °F 73% 30.31 in 1.5 mi West 16.1 mph 23.0 mph 0.00 in Snow Light Snow
12:22 PM 8.6 °F -7.0 °F -0.4 °F 67% 30.31 in 3.0 mi West 12.7 mph 23.0 mph 0.00 in Snow Light Snow
12:30 PM 8.6 °F -8.3 °F -0.4 °F 67% 30.30 in 1.8 mi West 15.0 mph - 0.00 in Snow Light Snow
12:32 PM 8.6 °F -8.3 °F -0.4 °F 67% 30.30 in 2.0 mi West 15.0 mph - 0.00 in Snow Light Snow
12:36 PM 8.6 °F -6.3 °F -0.4 °F 67% 30.30 in 1.2 mi WNW 11.5 mph - 0.00 in Snow Light Snow
12:38 PM 8.6 °F -5.5 °F 1.4 °F 73% 30.30 in 0.8 mi West 10.4 mph - 0.00 in Snow Light Snow
12:49 PM 8.6 °F -4.7 °F 1.4 °F 73% 30.29 in 1.5 mi WNW 9.2 mph - 0.00 in Snow Light Snow
12:53 PM 8.1 °F -7.0 °F -0.0 °F 70% 30.34 in 2.5 mi WNW 11.5 mph 18.4 mph 0.00 in Snow Light Snow
12:58 PM 8.6 °F -6.3 °F -0.4 °F 67% 30.29 in 1.2 mi West 11.5 mph 17.3 mph 0.00 in Snow Light Snow
1:10 PM 8.6 °F -10.0 °F -0.4 °F 67% 30.29 in 2.0 mi West 18.4 mph 21.9 mph 0.00 in Snow Light Snow
1:14 PM 8.6 °F -8.3 °F 1.4 °F 73% 30.30 in 1.2 mi West 15.0 mph - 0.00 in Snow Light Snow
1:23 PM 8.6 °F -10.0 °F 1.4 °F 73% 30.29 in 0.8 mi West 18.4 mph 24.2 mph 0.00 in Snow Light Snow
1:26 PM 8.6 °F -7.7 °F -0.4 °F 67% 30.29 in 1.8 mi West 13.8 mph 24.2 mph 0.00 in Snow Light Snow
1:29 PM 8.6 °F -8.9 °F -0.4 °F 67% 30.29 in 3.0 mi West 16.1 mph 24.2 mph 0.00 in Snow Light Snow
1:51 PM 8.6 °F -7.0 °F 1.4 °F 73% 30.29 in 1.8 mi West 12.7 mph 20.7 mph 0.00 in Snow Light Snow
1:53 PM 9.0 °F -4.2 °F 1.0 °F 70% 30.34 in 1.0 mi WNW 9.2 mph 20.7 mph 0.00 in Snow Light Snow
2:01 PM 8.6 °F -8.3 °F 1.4 °F 73% 30.29 in 0.5 mi West 15.0 mph 19.6 mph 0.00 in Snow Snow
2:16 PM 8.6 °F -8.9 °F 1.4 °F 73% 30.29 in 1.0 mi West 16.1 mph - 0.00 in Snow Light Snow
2:25 PM 8.6 °F -8.3 °F 3.2 °F 79% 30.29 in 0.5 mi West 15.0 mph - 0.00 in Snow Snow
2:30 PM 8.6 °F -8.3 °F 1.4 °F 73% 30.29 in 0.8 mi West 15.0 mph - 0.00 in Snow Light Snow
2:32 PM 8.6 °F -8.3 °F 1.4 °F 73% 30.29 in 1.0 mi West 15.0 mph - 0.00 in Snow Light Snow
2:37 PM 10.4 °F -6.6 °F 1.4 °F 67% 30.29 in 2.0 mi West 16.1 mph - 0.00 in Snow Light Snow
2:42 PM 10.4 °F -4.1 °F 3.2 °F 73% 30.29 in 1.2 mi West 11.5 mph - 0.00 in Snow Light Snow
2:51 PM 8.6 °F -6.3 °F 1.4 °F 73% 30.29 in 2.0 mi West 11.5 mph 20.7 mph 0.00 in Snow Light Snow
2:53 PM 9.0 °F -7.3 °F 1.0 °F 70% 30.34 in 2.0 mi West 13.8 mph 20.7 mph 0.00 in Snow Light Snow
2:56 PM 8.6 °F -7.7 °F 1.4 °F 73% 30.29 in 1.2 mi West 13.8 mph - 0.00 in Snow Light Snow
3:01 PM 8.6 °F -7.0 °F 3.2 °F 79% 30.29 in 0.5 mi WNW 12.7 mph - 0.00 in Snow Snow
3:12 PM 10.4 °F -6.6 °F 3.2 °F 73% 30.28 in 0.5 mi West 16.1 mph 19.6 mph 0.00 in Snow Snow
3:14 PM 10.4 °F -6.6 °F 3.2 °F 73% 30.28 in 0.8 mi West 16.1 mph - 0.00 in Snow Light Snow
3:18 PM 10.4 °F -5.4 °F 1.4 °F 67% 30.29 in 1.8 mi West 13.8 mph - 0.00 in Snow Light Snow
3:23 PM 10.4 °F -4.8 °F 1.4 °F 67% 30.29 in 0.8 mi West 12.7 mph 20.7 mph 0.00 in Snow Light Snow
3:29 PM 8.6 °F -4.7 °F 3.2 °F 79% 30.28 in 0.2 mi WSW 9.2 mph - 0.00 in Snow Heavy Snow
3:37 PM 10.4 °F -5.4 °F 3.2 °F 73% 30.29 in 0.8 mi West 13.8 mph 18.4 mph 0.00 in Snow Light Snow
3:49 PM 10.4 °F -7.2 °F 1.4 °F 67% 30.29 in 1.5 mi West 17.3 mph - 0.00 in Snow Light Snow
3:53 PM 10.0 °F -7.1 °F 1.0 °F 67% 30.33 in 2.5 mi West 16.1 mph - 0.00 in Snow Light Snow
3:59 PM 10.4 °F -5.4 °F 1.4 °F 67% 30.28 in 1.8 mi West 13.8 mph - 0.00 in Snow Light Snow
4:07 PM 10.4 °F -6.6 °F 3.2 °F 73% 30.29 in 1.2 mi West 16.1 mph 19.6 mph 0.00 in Snow Light Snow
4:13 PM 10.4 °F -4.1 °F 1.4 °F 67% 30.29 in 2.0 mi West 11.5 mph 20.7 mph 0.00 in Snow Light Snow
4:17 PM 10.4 °F -6.6 °F 1.4 °F 67% 30.29 in 1.2 mi WSW 16.1 mph - 0.00 in Snow Light Snow
4:33 PM 10.4 °F -2.4 °F 3.2 °F 73% 30.29 in 0.5 mi West 9.2 mph 20.7 mph 0.00 in Snow Snow
4:50 PM 10.4 °F -6.0 °F 5.0 °F 79% 30.28 in 1.0 mi West 15.0 mph - 0.00 in Snow Light Snow
4:53 PM 10.9 °F -4.7 °F 5.0 °F 77% 30.33 in 0.8 mi West 13.8 mph - 0.00 in Snow Light Snow
5:00 PM 10.4 °F -2.4 °F 5.0 °F 79% 30.28 in 0.5 mi West 9.2 mph - 0.00 in Snow Snow
5:04 PM 10.4 °F -6.6 °F 3.2 °F 73% 30.28 in 1.0 mi West 16.1 mph 21.9 mph 0.00 in Snow Light Snow
5:28 PM 10.4 °F -7.2 °F 3.2 °F 73% 30.29 in 0.8 mi West 17.3 mph - 0.00 in Snow Light Snow
5:32 PM 10.4 °F -4.8 °F 5.0 °F 79% 30.29 in 1.5 mi West 12.7 mph - 0.00 in Snow Light Snow
5:39 PM 10.4 °F -6.0 °F 1.4 °F 67% 30.29 in 3.0 mi West 15.0 mph 18.4 mph 0.00 in Snow Light Snow
5:46 PM 10.4 °F -4.8 °F 3.2 °F 73% 30.29 in 2.0 mi West 12.7 mph - 0.00 in Snow Light Snow
5:53 PM 10.9 °F -5.9 °F 1.9 °F 67% 30.33 in 4.0 mi West 16.1 mph - 0.00 in Snow Light Snow
5:57 PM 10.4 °F -5.4 °F 3.2 °F 73% 30.28 in 1.8 mi West 13.8 mph - 0.00 in Snow Light Snow
6:09 PM 10.4 °F -3.3 °F 3.2 °F 73% 30.28 in 3.0 mi WNW 10.4 mph - 0.00 in Snow Light Snow
6:18 PM 10.4 °F -3.3 °F 5.0 °F 79% 30.28 in 1.8 mi WNW 10.4 mph 18.4 mph 0.00 in Snow Light Snow
6:31 PM 12.2 °F -3.7 °F 3.2 °F 67% 30.28 in 3.0 mi West 15.0 mph 19.6 mph 0.00 in Snow Light Snow
6:50 PM 12.2 °F -2.5 °F 5.0 °F 73% 30.28 in 2.0 mi West 12.7 mph - 0.00 in Snow Light Snow
6:53 PM 12.0 °F -2.7 °F 5.0 °F 73% 30.32 in 2.0 mi West 12.7 mph - 0.00 in Snow Light Snow
7:17 PM 12.2 °F -1.8 °F 6.8 °F 79% 30.27 in 1.5 mi West 11.5 mph 17.3 mph 0.00 in Snow Light Snow
7:22 PM 12.2 °F -2.5 °F 3.2 °F 67% 30.28 in 3.0 mi WNW 12.7 mph 17.3 mph 0.00 in Snow Light Snow
7:35 PM 12.2 °F -1.0 °F 3.2 °F 67% 30.27 in 2.5 mi West 10.4 mph - 0.00 in Snow Light Snow
7:44 PM 12.2 °F 0.7 °F 3.2 °F 67% 30.27 in 5.0 mi West 8.1 mph - 0.00 in Snow Light Snow
7:53 PM 12.9 °F -1.6 °F 3.9 °F 67% 30.32 in 5.0 mi WNW 12.7 mph 19.6 mph 0.00 in Snow Light Snow
8:02 PM 12.2 °F -0.2 °F 5.0 °F 73% 30.27 in 2.5 mi WNW 9.2 mph 18.4 mph 0.00 in Snow Light Snow
8:06 PM 12.2 °F -1.0 °F 5.0 °F 73% 30.27 in 1.2 mi WNW 10.4 mph 18.4 mph 0.00 in Snow Light Snow
8:17 PM 12.2 °F -1.0 °F 6.8 °F 79% 30.27 in 2.0 mi WNW 10.4 mph 17.3 mph 0.00 in Snow Light Snow
8:24 PM 12.2 °F -1.0 °F 6.8 °F 79% 30.27 in 1.2 mi NW 10.4 mph 17.3 mph 0.00 in Snow Light Snow
8:32 PM 12.2 °F -2.5 °F 5.0 °F 73% 30.27 in 2.0 mi West 12.7 mph 18.4 mph 0.00 in Snow Light Snow
8:53 PM 12.9 °F -0.2 °F 6.1 °F 74% 30.31 in 3.0 mi WNW 10.4 mph - 0.00 in Snow Light Snow
9:08 PM 12.2 °F -1.8 °F 3.2 °F 67% 30.27 in 4.0 mi WNW 11.5 mph 18.4 mph 0.00 in Snow Light Snow
9:20 PM 12.2 °F -1.0 °F 6.8 °F 79% 30.27 in 1.8 mi WNW 10.4 mph 18.4 mph 0.00 in Snow Light Snow
9:24 PM 12.2 °F -0.2 °F 6.8 °F 79% 30.27 in 2.0 mi WNW 9.2 mph 16.1 mph 0.00 in Snow Light Snow
9:30 PM 12.2 °F -1.0 °F 6.8 °F 79% 30.27 in 3.0 mi WNW 10.4 mph 16.1 mph 0.00 in Snow Light Snow
9:43 PM 12.2 °F -2.5 °F 5.0 °F 73% 30.27 in 4.0 mi WNW 12.7 mph 18.4 mph 0.00 in Snow Light Snow
9:53 PM 12.9 °F -0.2 °F 5.0 °F 71% 30.32 in 3.0 mi West 10.4 mph 18.4 mph 0.00 in Snow Light Snow
10:23 PM 12.2 °F -1.0 °F 6.8 °F 79% 30.27 in 2.0 mi WNW 10.4 mph - 0.00 in Snow Light Snow
10:40 PM 12.2 °F -1.8 °F 6.8 °F 79% 30.28 in 1.2 mi WNW 11.5 mph 20.7 mph 0.00 in Snow Light Snow
10:46 PM 12.2 °F 0.7 °F 6.8 °F 79% 30.28 in 2.0 mi WNW 8.1 mph 17.3 mph 0.00 in Snow Light Snow
10:53 PM 12.9 °F 1.6 °F 5.0 °F 71% 30.32 in 3.0 mi WNW 8.1 mph 19.6 mph 0.00 in Snow Light Snow
11:07 PM 12.2 °F -2.5 °F 3.2 °F 67% 30.28 in 5.0 mi WNW 12.7 mph 19.6 mph 0.00 in Snow Light Snow
11:19 PM 12.2 °F -2.5 °F 5.0 °F 73% 30.28 in 2.5 mi WNW 12.7 mph 20.7 mph 0.00 in Snow Light Snow
11:29 PM 12.2 °F -1.8 °F 6.8 °F 79% 30.28 in 1.8 mi WNW 11.5 mph 19.6 mph 0.00 in Snow Light Snow
11:44 PM 12.2 °F -1.0 °F 5.0 °F 73% 30.29 in 2.5 mi WNW 10.4 mph 17.3 mph 0.00 in Snow Light Snow
11:53 PM 12.9 °F -0.9 °F 5.0 °F 71% 30.34 in 4.0 mi WNW 11.5 mph 17.3 mph 0.00 in Snow Light Snow